Flag for Japan Weather past 2 weeks in Fukuoka, Japan

Now
75 °F

Broken clouds.


Feels Like: 75 °F
Forecast: 76 / 86 °F
Wind: 3 mph from Southeast

Location: Fukuoka Airport

Current Time: Jul 7, 2015 at 11:38:33 AM

Latest Report: Jul 7, 2015 at 11:00 AM


Visibility: N/A

Pressure: 29.80 "Hg

Humidity: 83%

Dew point: 70 °F

Location of FukuokaLocation

Historic Weather in Fukuoka — Graph

°F

Fukuoka temperature yesterday

Maximum temperature yesterday: 81 °F (at 1:00 PM)
Minimum temperature yesterday: 70 °F (at 12:30 AM)
Average temperature yesterday: 74 °F

Past Weeks' High & Low Weather Summary

 TemperatureHumidityPressure
High86 °F (Jun 29, 3:00 PM)94% (Jun 24, 9:30 PM)29.86 "Hg (Jun 24, 9:30 PM)
Low63 °F (Jun 29, 5:30 AM)45% (Jun 29, 5:00 PM)29.24 "Hg (Jul 1, 3:00 AM)
Average74 °F78%29.69 "Hg
* Reported Jun 22 10:00 AM — Jul 7 10:30 AM, Fukuoka, Weather by CustomWeather, © 2015

Note: Actual official high and low records may vary slightly from our data, if they occured in-between our weather recording intervals... More about our weather records

Advertising

Fukuoka weather history for previous 24 hours

 ConditionsComfort  
Time TempWeatherWind HumidityBarometerVisibility
10:30 AM
Tue, Jul 7
75 °FBroken clouds.3 mph83%29.80 "HgN/A
10:00 AM73 °FBroken clouds.2 mph89%29.80 "HgN/A
9:30 AM73 °FLight rain. Broken clouds.5 mph89%29.80 "HgN/A
9:00 AM73 °FLight rain. Broken clouds.1 mph89%29.80 "HgN/A
8:30 AM72 °FSprinkles. Broken clouds.2 mph94%29.80 "HgN/A
8:00 AM72 °FSprinkles. Broken clouds.5 mph88%29.80 "HgN/A
7:30 AM72 °FSprinkles. Broken clouds.3 mph88%29.80 "HgN/A
7:00 AM72 °FSprinkles. Partly sunny.3 mph94%29.80 "HgN/A
6:30 AM70 °FSprinkles. Fog.2 mph94%29.80 "Hg3 mi
6:00 AM70 °FLots of rain. Fog.3 mph94%29.80 "Hg1 mi
5:30 AM70 °FRain showers. Fog.2 mph94%29.80 "Hg1 mi
5:00 AM70 °FLots of rain. Fog.3 mph94%29.77 "Hg1 mi
4:30 AM70 °FSprinkles. Partly cloudy.No wind94%29.77 "Hg4 mi
4:00 AM70 °FSprinkles. Partly cloudy.1 mph94%29.77 "Hg4 mi
3:30 AM70 °FSprinkles. Fog.1 mph94%29.77 "Hg2 mi
3:00 AM70 °FRain showers. Fog.1 mph94%29.80 "Hg2 mi
2:30 AM70 °FSprinkles. Fog.No wind94%29.80 "Hg3 mi
2:00 AM70 °FSprinkles. Fog.No wind94%29.80 "Hg2 mi
1:30 AM70 °FSprinkles. Partly cloudy.2 mph94%29.80 "Hg4 mi
1:00 AM70 °FRain showers. Partly cloudy.6 mph88%29.80 "Hg2 mi
12:30 AM72 °FRain showers. Partly cloudy.3 mph88%29.83 "Hg2 mi
12:00 AM72 °FLight rain. Partly cloudy.2 mph94%29.83 "Hg4 mi
11:30 PM
Mon, Jul 6
72 °FLight rain. Partly cloudy.No wind88%29.83 "Hg5 mi
11:00 PM72 °FLight rain. Partly cloudy.3 mph88%29.80 "Hg5 mi
10:30 PM72 °FLight rain. Partly cloudy.2 mph88%29.80 "Hg5 mi
10:00 PM72 °FLight rain. Partly cloudy.1 mph88%29.80 "Hg5 mi
9:30 PM73 °FLight rain. Partly cloudy.2 mph83%29.83 "Hg5 mi
9:00 PM72 °FLight rain. Partly cloudy.No wind88%29.83 "Hg4 mi
8:30 PM73 °FLight rain. Partly cloudy.1 mph78%29.80 "Hg5 mi
8:00 PM73 °FLight rain. Passing clouds.3 mph74%29.80 "HgN/A
7:30 PM73 °FLight rain. Partly sunny.3 mph78%29.80 "HgN/A
7:00 PM75 °FLight rain. Partly sunny.6 mph74%29.80 "HgN/A
6:30 PM75 °FLight rain. Broken clouds.9 mph74%29.80 "HgN/A
6:00 PM75 °FLight rain. Partly sunny.7 mph74%29.80 "HgN/A
5:30 PM75 °FLight rain. Partly sunny.10 mph74%29.80 "HgN/A
5:00 PM77 °FLight rain. Partly sunny.12 mph65%29.80 "HgN/A
4:30 PM79 °FLight rain. Partly sunny.8 mph61%29.77 "HgN/A
4:00 PM79 °FLight rain. Broken clouds.7 mph61%29.77 "HgN/A
3:30 PM81 °FLight rain. Broken clouds.7 mph54%29.77 "HgN/A
3:00 PM81 °FPartly sunny.5 mph58%29.77 "HgN/A
2:30 PM81 °FPartly sunny.8 mph54%29.77 "HgN/A
2:00 PM79 °FBroken clouds.8 mph58%29.77 "HgN/A
1:30 PM81 °FPartly sunny.10 mph58%29.80 "HgN/A
1:00 PM81 °FPartly sunny.9 mph58%29.80 "HgN/A
12:30 PM79 °FBroken clouds.10 mph58%29.80 "HgN/A
12:00 PM77 °FBroken clouds.2 mph61%29.80 "HgN/A
11:30 AM75 °FPartly sunny.7 mph69%29.83 "HgN/A
11:00 AM75 °FPartly sunny.8 mph69%29.80 "HgN/A
Weather by CustomWeather, © 2015

See weather overviewHow to use our weather pages